Погода в Омске

Погода в Омске : погода сейчас, прогноз погоды и архив. Всё, что Вы хотите узнать о погоде в Омске!

Хотите узнать прогноз погоды в Омске? Тогда Вам сюда: Погода в Омске

Поиск расширенной информации на нашем сайте:

Другие новости

Новости СМИ2

Главная страница сайта

Новости сайта

03.07.2017

Напоминаем, что на нашем специализированном сайте Метеоцентр.Азия вы можете получить высокодетализированные автоматические прогнозы погоды по пунктам России, СНГ и мира в авиационном формате (включающие направление и скорость ветра, видимость, явления погоды, количество и форму облачности, нижнюю и верхнюю границу облачности).

Рекомендуем: Оптовка: печное литье балезино.

Погода в Омске - сегодня

Время (UTC), дата Ветер
(°,м/с) 
Видим.   Явления Облачность Т
(°С)
Тd
(°С)
f(%) Тe
(°С)
Pmin
(гПа)
dP
(гПа)
Po
(мм)
O2
(г/м3)
Тmin Tmax R s Состояние
почвы
00 21.11.17 220 (ЮЗ) 10 км    10/10 600 м 
[Sc]
-2.2 -4 87 -3  1031.7  0.2  762  310           
03 21.11.17 190 (Ю) 20000 м    10/0 средняя 
[Ac As]
-2.8 -4.3 89 -2  1031.6  -0.2  762  311  -3      12  равномерный
сухой снег
100% 
06 21.11.17 210 (ЮЗ) 20000 м    9/0 средняя, верхняя 
[Ac trans|Ci sp]
-0.4 -3.5 80 -1  1031.6  0.2  762  308           
09 21.11.17 210 (ЮЗ) 20000 м    10/0 средняя, верхняя 
[Ac trans|Ci fib]
+0.1 -4.4 72 -1  1031.4  -0.2  762  307           
12 21.11.17 210 (ЮЗ) 10 км    6/0 средняя 
[Ac trans]
-2 -5.3 78 -3  1032  0.5  762  310           
15 21.11.17 210 (ЮЗ) 10 км    10/0 средняя 
[Ac und]
-1.3 -4.8 77 -3  1031.7  -0.2  762  309    +0.2       
18 21.11.17 210 (ЮЗ) 10 км    10/0 средняя 
[Ac und]
-2.3 -5.9 76 -3  1031.8  762  310           
21 21.11.17 220 (ЮЗ) 10 км    ясно 
-5.7 -8.5 81 -5  1032.6  0.5  762  315           
00 22.11.17 200 (Ю) 10 км    ясно 
-7.5 -9.8 84 -7  1032.4  -0.3  762  317           
03 22.11.17 200 (Ю) 20000 м    10/0 средняя, верхняя 
[Ac trans|Ci fib]
-7.6 -10.1 82 -9  1032.1  -0.2  762  317  -8.4      11  равномерный
сухой снег
100% 
06 22.11.17 190 (Ю) 20000 м    10/0 верхняя 
[Cc]
-4 -8.8 69 -5  1031.8  -0.1  762  313           
09 22.11.17 180 (Ю) 20000 м    8/0 верхняя 
[Ci sp]
-2.1 -8 64 -4  1030.8  -0.8  761  310           
12 22.11.17 190 (Ю) 10 км    6/0 верхняя 
[Ci sp]
-4.2 -8.2 74 -5  1030.5  -0.5  761  312           
15 22.11.17 190 (Ю) 10 км    8/0 верхняя 
[Ci fib]
-5.3 -8.4 79 -7  1030.1  -0.5  761  313    -2.1       
18 22.11.17 190 (Ю) 10 км    9/0 средняя, верхняя 
[Ac trans|Ci fib]
-5.2 -8.3 79 -7  1029.6  -0.4  760  313           
21 22.11.17 210 (ЮЗ) 10 км    6/0 верхняя 
[Ci fib]
-5.3 -8.6 78 -5  1028.8  -0.8  760  313           
00 23.11.17 210 (ЮЗ) 10 км    ясно 
-7.3 -9.4 85 -7  1028.5  -0.4  759  315           
03 23.11.17 210 (ЮЗ) 20000 м    8/0 верхняя 
[Ci fib]
-8.3 -10 87 -8  1029.5  0.9  760  317  -8.6      11  равномерный
сухой снег
100% 
06 23.11.17 200 (Ю) 20000 м    3/0 верхняя 
[Ci fib]
-3.3 -8.3 68 -4  1029.1  760  311           
09 23.11.17 190 (Ю) 20000 м    ясно 
-1.2 -8.7 57 -1  1029.2  0.2  760  309           
12 23.11.17 180 (Ю) 10 км    ясно 
-5.1 -9 74 -5  1029.4  0.1  760  313           
15 23.11.17 180 (Ю) 4000 м  дымка  ясно 
-6.1 -9.3 78 -6  1029.4  760  314    -1.1       
18 23.11.17 170 (Ю) 10 км    ясно 
-4.5 -7.2 81 -6  1029.1  -0.2  760  312           
21 23.11.17 160 (Ю) 10 км    ясно 
-5.3 -8.3 79 -7  1029.2  760  313           
00 24.11.17 150 (ЮВ) 10 км    ясно 
-6.1 -8.6 82 -8  1028.6  -0.6  760  314           
Время (UTC), дата Ветер
(°,м/с) 
Видим.   Явления Облачность Т
(°С)
Тd
(°С)
f(%) Тe
(°С)
Pmin
(гПа)
dP
(гПа)
Po
(мм)
O2
(г/м3)
Тmin Tmax R s Состояние
почвы

Для получения пояснительной информации подведите курсор к названию столбца.

ПОГОДА в Омске - архив

Всё, что Вы хотите узнать о погоде в Омске - удобно и подробно!

Выберите нужную дату (начиная с 1 января 2015* года) и нажмите кнопку "Найти".
Будут отображены архивные сводки погоды по пункту Омск, начиная с указанной даты.


Отображать данные в формате CSV (для использования в таблицах Excel)


Внимание! Наш архив погоды предназначен исключительно для личного некоммерческого использования в познавательных целях. Если Вам необходимы официальные справки о состоянии погоды (для производственных, юридических, коммерческих и т.п. целей), обращайтесь в органы Росгидромета.

*Примечание: данная дата относится к архиву по метеостанциям СССР (Россия, СНГ, Балтия).
Архив по метеостанциям Зарубежной Европы и Азии (кроме Китая) хранится 10 дней, по другим регионам земного шара (Китай, Африка, Америка, Австралия, Океания) - 1 день.

Омск - район местоположения метеостанции


Название, широта, долгота, высота метеостанции:
Омск (город) 55°ш. 73.4°д. 122 м над ур. моря [Российская Федерация]

Дополнительная информация

В oтличие oт бoльшинства пoгoдных сайтoв мы публикуем пoдрoбную метеoинфoрмацию в детальнoм прoфессиoнальнoм фoрмате.

Характеристики температуры и влажнoсти вoздуха измеряются на высoте 2 м в тени вдали oт зданий и деревьев.
Скoрoсть ветра измеряется на высoте 10 м (на урoвне рoста челoвека скoрoсть ветра ниже в 1.5-2 раза). Если метеoстанция нахoдится в гoрoде или в лесу, тo скoрoсть ветра занижена на 2-4 м/с пo сравнению с oткрытым местoм. Скoрoсть ветра над акватoриями крупных рек и oзёр, а также на вершинах хoлмoв на 2-5 м/с выше, чем в oбычных услoвиях.
Атмoсфернoе давление в разных тoчках местнoсти мoжет значительнo oтличаться oт давления на метеoстанции, в зависимoсти oт услoвий рельефа (при пoдъёме на 10 м давление пoнижается примернo на 1 мм рт.ст.).